Location: Unspecified
(0.0000°N, 0.0000°E)
Time: 06:49:47
(UTC+00:00)

Courier 1B - Pass Details

Date: 30 September 2023
Orbit: 962 x 1208 km, 28.3° (Epoch: 06 December)

Event Time Altitude Azimuth Distance (km) Brightness Sun altitude
Rises 05:14:49 0° 213° (SSW) 3,646 10.2 -8.8°
Reaches altitude 10° 05:18:29 10° 194° (SSW) 2,718 9.7 -7.9°
Maximum altitude 05:22:36 17° 154° (SSE) 2,272 9.8 -6.9°
Drops below altitude 10° 05:26:48 10° 115° (ESE) 2,795 11.2 -5.8°
Sets 05:30:37 0° 96° (E) 3,794 13.6 -4.9°
